BREEZE-M DEB (TANK), 40386

Orbit data source: Space-Track

BREEZE-M DEB (TANK), 40386 is space debris in HEO originally from a launch on Sun, 01 Feb 2015 UTC launched from the Tyuratam Missile And Space Complex (TTMTR). Debris objects in space refer to the collection of defunct objects orbiting the Earth. Examples of debris include non-operational satellites, rocket bodies, and fragments generated from explosions, collisions, or faulty payload assembly.

Loading next visibility...
Identifier
40386, 2015-005C
Orbit
HEO
Country
Flag of CISCIS
Related business
Manufacturer
Khrunichev
Mission
Spacecraft
Bus & Motor
BRIZ TANK, Unknown motor
Mass
~1,000 kg wet, 1,000 kg dry
Launch date (UTC)
2015-02-01 (11 years ago)
Launch vehicle
Unknown
Launch site
Tyuratam Missile And Space Complex (TTMTR)
Object type
Payload
Rocket body
Debris
Shape & HBR
Torus, 2.0 m
Radar Cross Section
8.218 m², Large (>1 m²)

Expand to show TLE details & history
Last TLE update: 2 days ago

TLE from 2 days ago
0 BREEZE-M DEB (TANK)
1 40386U 15005C   25260.05147354  .00001747  00000-0  94624-3 0  9993
2 40386  50.7132 256.4994 5110115 349.8725   2.8284  5.33174789201163
Epoch: 2025-09-17T01:14Z
TLE epoch observation values (Epoch: 2025-09-17T01:14:07.313Z)
Latitude
-0.00044°
Longitude
-118.26031°
Altitude
430.146 km
Speed
9.398 km/s
True Right ascension
17h 06m 00s
True Declination
0° 00' 02"
Sunlit
Object was in daylight at epoch
Visualization orbit readout
Latitude
Unknown
Longitude
Unknown
Altitude
Unknown
Speed
Unknown
Apparent Right ascension
Unknown
Apparent Declination
Unknown
Sunlit
N/A
Visualization observer readout
Local Sidereal Time
14:26:33
Azimuth
Unknown
Elevation
Unknown
Doppler factor
Unknown
Orbital elements
Apogee altitude
14,535.974 km
Perigee altitude
390.018 km
Semi-major axis
13,841.133 km
Eccentricity
0.51101
Inclination
50.7132°
RAAN
256.4994°
Arg. of periapsis
349.8725°
True anomaly
10.13196°
Mean anomaly
2.8284°
Eccentric anomaly
5.77398°
Mean motion
1.33286 °/min
Orbital period
270.1 mins
BSTAR
0.00094624
Loading maneuver chart data...
Computing Atmospheric mass density...
Loading historical data...
Loading historical data...
Loading historical data...
Loading historical data...
Loading historical data...
Loading historical data...
Loading historical data...
Other satellites on launch #5 in the year 2015 (2015-02-01 UTC)

Documentation

Showing up to 5 results
|